This is the latest recevied weather packets stored in our database for station/object GUNLAK-WX. If no packets are shown the sender has not sent any weather packets the latest 10 day(s).
| Time | Temp. | Humidity | Pressure | Rain* | Wind** | Luminosity | Snow |
|---|---|---|---|---|---|---|---|
| 1777702574 | 0° C | 81% | 991.5 hPa | 0 mm | - | - | - |
| 1777701721 | 0° C | 81% | 991.5 hPa | 0 mm | - | - | - |
| 1777700775 | 0° C | 76% | 990.6 hPa | 0 mm | - | - | - |
| 1777699894 | 0.56° C | 78% | 991.1 hPa | 0 mm | - | - | - |
| 1777698974 | 0.56° C | 78% | 991.1 hPa | 0 mm | - | - | - |
| 1777698105 | 0.56° C | 78% | 991.1 hPa | 0 mm | - | - | - |
| 1777697175 | 0.56° C | 76% | 990.6 hPa | 0 mm | - | - | - |
| 1777696292 | 0.56° C | 73% | 990.7 hPa | 0 mm | - | - | - |
| 1777695374 | 1.11° C | 73% | 990.7 hPa | 0 mm | - | - | - |
| 1777694506 | 1.11° C | 73% | 990.7 hPa | 0 mm | - | - | - |
| 1777693574 | 1.11° C | 69% | 990.1 hPa | 0 mm | - | - | - |
| 1777692694 | 1.11° C | 71% | 989.7 hPa | 0 mm | - | - | - |
| 1777691773 | 1.67° C | 71% | 989.7 hPa | 0 mm | - | - | - |
| 1777690904 | 1.67° C | 71% | 989.7 hPa | 0 mm | - | - | - |
| 1777689972 | 1.67° C | 67% | 989.2 hPa | 0 mm | - | - | - |
| 1777689091 | 1.67° C | 69% | 990.1 hPa | 0 mm | - | - | - |
| 1777688172 | 1.67° C | 69% | 990.1 hPa | 0 mm | - | - | - |
| 1777687299 | 1.67° C | 69% | 990.1 hPa | 0 mm | - | - | - |
| 1777686372 | 2.22° C | 63% | 990.3 hPa | 0 mm | - | - | - |
| 1777685489 | 2.22° C | 63% | 990.3 hPa | 0 mm | - | - | - |
| 1777684571 | 2.22° C | 63% | 990.3 hPa | 0 mm | - | - | - |
| 1777683697 | 2.78° C | 63% | 990.3 hPa | 0 mm | - | - | - |
| 1777682771 | 2.78° C | 54% | 990.8 hPa | 0 mm | - | - | - |
| 1777681890 | 3.33° C | 57% | 991.2 hPa | 0 mm | - | - | - |
| 1777680972 | 4.44° C | 57% | 991.2 hPa | 0 mm | - | - | - |
* Rain latest hour (hover to see other rain measurements)
** Current wind speed in m/s (hover to see current wind gust speed)